DELTA 1 DEB, 3126

Orbit data source: Space-Track

DELTA 1 DEB, 3126 is space debris in LEO originally from a launch on Thu, 11 Jan 1968 UTC launched from the Air Force Western Test Range (AFWTR). Debris objects in space refer to the collection of defunct objects orbiting the Earth. Examples of debris include non-operational satellites, rocket bodies, and fragments generated from explosions, collisions, or faulty payload assembly.

Loading next visibility...
DELTA 1 DEB details
Identifier
3126, 1968-002C
Orbit
LEO
Last TLE update1 day ago
Origin
Flag of USGSFC (US)
ManufacturerUnknown
MissionSpacecraft
Bus & MotorUnknown
MassUnknown
Launch date (UTC)
1968-01-11 (57 years ago)
Launch vehicleUnknown
Launch site
Air Force Western Test Range (AFWTR)
Object type
Payload
Rocket body
Debris
Shape & HBRUnknown
Radar Cross SectionSmall (<0.1 m²)

Expand to show TLE details & history

TLE from 1 day ago
0 DELTA 1 DEB
1 03126U 68002C   24355.16034120 -.00000013  00000-0  22172-3 0  9996
2 03126 106.0626  64.3657 0322304 304.5384  80.6682 12.82428313664546
Epoch: 2024-12-20T03:50Z
Definitive object data (Epoch: 2024-12-20T03:50:53.479Z)
Latitude27.69051°
Longitude-91.23408°
Altitude1,302.216 km
Speed7.223 km/s
True Right ascension03h 42m 52s
True Declination27° 33' 33"
Sunlit
Object was in full shadow at TLE epoch
Visualization TLE readout
Latitude26.16199°
Longitude107.42898°
Altitude1,546.828 km
Speed6.997 km/s
Apparent Right ascension19h 23m 30s
Apparent Declination-4° 08' 50"
Sunlit
Object is in daylight
Visualization observer readout
Local Sidereal Time11:22:35
Azimuth72.803° E
Elevation-25.564°
Doppler factor1
Orbital elements
Apogee altitude1,577.945 km
Perigee altitude1,081.103 km
Semi-major axis7,707.661 km
Eccentricity0.0322304
Inclination106.0626°
RAAN64.3657°
Arg. of periapsis304.5384°
True anomaly84.33411°
Mean anomaly80.6682°
Eccentric anomaly82.49906°
Mean motion3.20745 °/min
BSTAR0.00022172
Orbital period112.24 mins
Loading maneuver chart data...
Loading historical data...
Loading historical data...
Loading historical data...
Loading historical data...
Loading historical data...
Loading historical data...
Loading historical data...

DELTA 1 DEB Visibility forecast

Observer location: undefined°, undefined

Span
Click to sort rows by Start time (UTC) header in descending order
Start Az.
Max El. time (UTC)
Max El. Az.
Max El.
End time (UTC)
End Az.
6 mins2024-12-21 15:59:48.560Z73.242° E2024-12-21 16:02:48.560Z93.967° ESE12.462°2024-12-21 16:05:48.560Z114.772° SE
16 mins2024-12-21 17:45:48.560Z29.557° NE2024-12-21 17:53:48.560Z118.752° SE42.613°2024-12-21 18:01:48.560Z191.779° SSW
13 mins2024-12-21 19:36:48.560Z0.407° NNE2024-12-21 19:42:48.560Z304.963° NW29.684°2024-12-21 19:49:48.560Z249.588° W
11 mins2024-12-22 02:41:48.560Z90.556° ESE2024-12-22 02:46:48.560Z44.546° NE23.153°2024-12-22 02:52:48.560Z357.436° N
14 mins2024-12-22 04:28:48.560Z158.795° S2024-12-22 04:34:48.560Z194.018° SSW44.508°2024-12-22 04:42:48.560Z335.497° NNW
6 mins2024-12-22 06:23:48.560Z245.856° WSW2024-12-22 06:25:48.560Z263.038° W14.821°2024-12-22 06:29:48.560Z295.013° NW
|